Phillips, WI

3:30 AM CST on February 08, 2016 (GMT -0600)
Price County

Weather History for KPBH - January, 2013

Change the Weather History Date:

Wednesday, January 9, 2013

  Actual Average Record
Temperature  
Mean Temperature 28 °F -  
Max Temperature 37 °F 19 °F 44 °F (2002)
Min Temperature 19 °F 4 °F -31 °F (2014)
Degree Days  
Heating Degree Days 37    
Moisture  
Dew Point 24 °F    
Average Humidity 73    
Maximum Humidity 93    
Minimum Humidity 52    
Precipitation  
Precipitation 0.00 in - - ()
Sea Level Pressure  
Sea Level Pressure 30.06 in    
Wind  
Wind Speed 10 mph (WSW)    
Max Wind Speed 16 mph    
Max Gust Speed 26 mph    
Visibility 10 miles    
Events      
Averages and records for this station are not official NWS values.
T = Trace of Precipitation, MM = Missing Value Source: NWS Daily Summary

Daily Weather History Graph

Daily Weather History Graph

Search for Another Location

Airport or City:

Trip Planner

Search our weather history database for the weather conditions in past years. The results will help you decide how hot, cold, wet, or windy it might be!

Date:

Astronomy

Jan. 09, 2013 Rise Set
Actual Time 7:41 AM CST 4:36 PM CST
Civil Twilight 7:07 AM CST 5:10 PM CST
Nautical Twilight 6:30 AM CST 5:47 PM CST
Astronomical Twilight 5:54 AM CST 6:23 PM CST
Moon 5:20 AM CST (1/9) 2:38 PM CST (1/9)
Length of Visible Light 10h 03m
Length of Day
8h 55m
Waning Crescent, 6% of the Moon is Illuminated
Jan 9
Waning Crescent
Jan 11
New
Jan 18
First Quarter
Jan 26
Full
Feb 3
Last Quarter

Hourly Weather History & Observations

Time (CST) Temp. Windchill Dew Point Humidity Pressure Visibility Wind Dir Wind Speed Gust Speed Precip Events Conditions
12:15 AM 35.6 °F 26.6 °F 30.2 °F 81% 29.77 in 10.0 mi WSW 13.8 mph 21.9 mph N/A   Overcast
12:35 AM 35.6 °F 29.2 °F 30.2 °F 81% 29.78 in 10.0 mi WSW 8.1 mph 20.7 mph N/A   Overcast
12:55 AM 33.8 °F 25.8 °F 28.4 °F 81% 29.78 in 10.0 mi WSW 10.4 mph 18.4 mph N/A   Overcast
1:15 AM 33.8 °F 26.4 °F 28.4 °F 81% 29.78 in 10.0 mi WSW 9.2 mph - N/A   Overcast
1:35 AM 33.8 °F 25.8 °F 28.4 °F 81% 29.79 in 10.0 mi WSW 10.4 mph - N/A   Overcast
1:55 AM 33.8 °F 24.8 °F 28.4 °F 81% 29.81 in 10.0 mi West 12.7 mph 21.9 mph N/A   Overcast
2:15 AM 33.8 °F 24.3 °F 28.4 °F 81% 29.81 in 10.0 mi WSW 13.8 mph 24.2 mph N/A   Overcast
2:35 AM 33.8 °F 27.0 °F 28.4 °F 81% 29.81 in 10.0 mi SW 8.1 mph - N/A   Overcast
2:55 AM 33.8 °F 27.0 °F 28.4 °F 81% 29.82 in 10.0 mi SW 8.1 mph 16.1 mph N/A   Overcast
3:15 AM 33.8 °F 25.8 °F 28.4 °F 81% 29.82 in 10.0 mi WSW 10.4 mph 18.4 mph N/A   Overcast
3:35 AM 33.8 °F 27.0 °F 28.4 °F 81% 29.82 in 10.0 mi WSW 8.1 mph - N/A   Overcast
3:55 AM 33.8 °F 26.4 °F 28.4 °F 81% 29.82 in 10.0 mi WSW 9.2 mph - N/A   Mostly Cloudy
4:15 AM 32.0 °F 24.2 °F 28.4 °F 87% 29.82 in 10.0 mi WSW 9.2 mph - N/A   Scattered Clouds
4:35 AM 30.2 °F 20.8 °F 28.4 °F 93% 29.82 in 10.0 mi SW 11.5 mph - N/A   Clear
4:55 AM 30.2 °F 21.9 °F 28.4 °F 93% 29.83 in 10.0 mi SW 9.2 mph 16.1 mph N/A   Clear
5:15 AM 30.2 °F 20.2 °F 28.4 °F 93% 29.83 in 10.0 mi SW 12.7 mph - N/A   Scattered Clouds
5:35 AM 32.0 °F 22.5 °F 28.4 °F 87% 29.83 in 10.0 mi SW 12.7 mph - N/A   Mostly Cloudy
5:55 AM 30.2 °F 20.8 °F 28.4 °F 93% 29.82 in 10.0 mi SW 11.5 mph - N/A   Scattered Clouds
6:15 AM 30.2 °F 20.2 °F 28.4 °F 93% 29.83 in 10.0 mi SW 12.7 mph 21.9 mph N/A   Mostly Cloudy
6:35 AM 32.0 °F 22.1 °F 28.4 °F 87% 29.84 in 10.0 mi WSW 13.8 mph 19.6 mph N/A   Overcast
6:55 AM 33.8 °F 24.8 °F 28.4 °F 81% 29.84 in 10.0 mi WSW 12.7 mph 23.0 mph N/A   Overcast
7:15 AM 33.8 °F 23.9 °F 26.6 °F 75% 29.85 in 10.0 mi WSW 15.0 mph 21.9 mph N/A   Mostly Cloudy
7:35 AM 33.8 °F 24.8 °F 26.6 °F 75% 29.86 in 10.0 mi WSW 12.7 mph 21.9 mph N/A   Scattered Clouds
7:55 AM 33.8 °F 23.5 °F 26.6 °F 75% 29.88 in 10.0 mi WSW 16.1 mph 21.9 mph N/A   Mostly Cloudy
8:15 AM 33.8 °F 25.3 °F 26.6 °F 75% 29.90 in 10.0 mi West 11.5 mph 20.7 mph N/A   Overcast
8:35 AM 33.8 °F 24.3 °F 26.6 °F 75% 29.92 in 10.0 mi West 13.8 mph 20.7 mph N/A   Overcast
8:55 AM 33.8 °F 27.0 °F 24.8 °F 70% 29.93 in 10.0 mi West 8.1 mph 23.0 mph N/A   Overcast
9:15 AM 33.8 °F 25.8 °F 24.8 °F 70% 29.94 in 10.0 mi West 10.4 mph 23.0 mph N/A   Overcast
9:35 AM 33.8 °F 24.3 °F 23.0 °F 65% 29.96 in 10.0 mi West 13.8 mph 26.5 mph N/A   Overcast
9:55 AM 33.8 °F 23.9 °F 23.0 °F 65% 29.97 in 10.0 mi WNW 15.0 mph 26.5 mph N/A   Overcast
10:15 AM 33.8 °F 25.3 °F 23.0 °F 65% 29.98 in 10.0 mi WNW 11.5 mph 20.7 mph N/A   Mostly Cloudy
10:35 AM 33.8 °F 24.8 °F 23.0 °F 65% 30.00 in 10.0 mi West 12.7 mph 17.3 mph N/A   Overcast
11:15 AM 35.6 °F 27.1 °F 23.0 °F 60% 30.01 in 10.0 mi WNW 12.7 mph 19.6 mph N/A   Mostly Cloudy
11:35 AM 33.8 °F 24.8 °F 21.2 °F 60% 30.02 in 10.0 mi WNW 12.7 mph 21.9 mph N/A   Scattered Clouds
11:55 AM 35.6 °F 28.0 °F 21.2 °F 56% 30.03 in 10.0 mi West 10.4 mph 19.6 mph N/A   Scattered Clouds
12:15 PM 35.6 °F 29.2 °F 23.0 °F 60% 30.03 in 10.0 mi WNW 8.1 mph 19.6 mph N/A   Scattered Clouds
12:35 PM 35.6 °F 28.0 °F 21.2 °F 56% 30.04 in 10.0 mi WNW 10.4 mph 18.4 mph N/A   Scattered Clouds
12:55 PM 35.6 °F 28.6 °F 21.2 °F 56% 30.06 in 10.0 mi WNW 9.2 mph 18.4 mph N/A   Clear
1:15 PM 35.6 °F 27.5 °F 21.2 °F 56% 30.08 in 10.0 mi WNW 11.5 mph 19.6 mph N/A   Clear
1:35 PM 35.6 °F 28.0 °F 21.2 °F 56% 30.10 in 10.0 mi West 10.4 mph 18.4 mph N/A   Clear
1:55 PM 35.6 °F 28.6 °F 21.2 °F 56% 30.13 in 10.0 mi West 9.2 mph 18.4 mph N/A   Clear
2:15 PM 35.6 °F 27.5 °F 21.2 °F 56% 30.16 in 10.0 mi West 11.5 mph 20.7 mph N/A   Clear
2:35 PM 37.4 °F 30.3 °F 21.2 °F 52% 30.17 in 10.0 mi WSW 10.4 mph 18.4 mph N/A   Clear
2:55 PM 37.4 °F 30.3 °F 21.2 °F 52% 30.18 in 10.0 mi West 10.4 mph - N/A   Clear
3:15 PM 37.4 °F 32.1 °F 21.2 °F 52% 30.20 in 10.0 mi West 6.9 mph 10.4 mph N/A   Clear
3:35 PM 35.6 °F 28.6 °F 21.2 °F 56% 30.21 in 10.0 mi West 9.2 mph 17.3 mph N/A   Clear
3:55 PM 35.6 °F 28.0 °F 21.2 °F 56% 30.23 in 10.0 mi WSW 10.4 mph 16.1 mph N/A   Clear
4:15 PM 35.6 °F 29.2 °F 21.2 °F 56% 30.25 in 10.0 mi WSW 8.1 mph 20.7 mph N/A   Clear
4:35 PM 35.6 °F 29.9 °F 21.2 °F 56% 30.25 in 10.0 mi WSW 6.9 mph - N/A   Clear
4:55 PM 33.8 °F 28.6 °F 21.2 °F 60% 30.26 in 10.0 mi WSW 5.8 mph - N/A   Clear
5:15 PM 33.8 °F 26.4 °F 21.2 °F 60% 30.27 in 10.0 mi WSW 9.2 mph - N/A   Clear
5:35 PM 32.0 °F 25.6 °F 21.2 °F 64% 30.28 in 10.0 mi WSW 6.9 mph - N/A   Clear
5:55 PM 32.0 °F 25.6 °F 21.2 °F 64% 30.29 in 10.0 mi WSW 6.9 mph - N/A   Clear
6:15 PM 30.2 °F 24.3 °F 21.2 °F 69% 30.30 in 10.0 mi WSW 5.8 mph - N/A   Clear
6:35 PM 30.2 °F 24.3 °F 21.2 °F 69% 30.31 in 10.0 mi WSW 5.8 mph - N/A   Clear
7:15 PM 28.4 °F 24.6 °F 21.2 °F 74% 30.32 in 10.0 mi SW 3.5 mph - N/A   Clear
7:35 PM 28.4 °F 22.2 °F 21.2 °F 74% 30.32 in 10.0 mi SW 5.8 mph - N/A   Clear
7:55 PM 28.4 °F 24.6 °F 21.2 °F 74% 30.32 in 10.0 mi SW 3.5 mph - N/A   Clear
8:15 PM 26.6 °F - 19.4 °F 74% 30.32 in 10.0 mi Calm Calm - N/A   Clear
8:35 PM 26.6 °F - 19.4 °F 74% 30.33 in 10.0 mi Calm Calm - N/A   Clear
8:55 PM 24.8 °F - 17.6 °F 74% 30.33 in 10.0 mi Calm Calm - N/A   Clear
9:15 PM 24.8 °F - 19.4 °F 80% 30.34 in 10.0 mi Calm Calm - N/A   Clear
9:35 PM 23.0 °F - 19.4 °F 86% 30.34 in 10.0 mi Calm Calm - N/A   Clear
9:55 PM 21.2 °F 16.4 °F 19.4 °F 93% 30.35 in 10.0 mi South 3.5 mph - N/A   Clear
10:15 PM 19.4 °F - 17.6 °F 93% 30.35 in 10.0 mi Calm Calm - N/A   Clear
10:35 PM 21.2 °F - 17.6 °F 86% 30.33 in 10.0 mi Calm Calm - N/A   Clear
10:55 PM 19.4 °F 14.3 °F 15.8 °F 86% 30.32 in 10.0 mi ESE 3.5 mph - N/A   Clear
11:15 PM 21.2 °F - 19.4 °F 93% 30.31 in 10.0 mi Calm Calm - N/A   Clear
11:35 PM 21.2 °F - 17.6 °F 86% 30.30 in 10.0 mi Calm Calm - N/A   Clear
11:55 PM 21.2 °F - 17.6 °F 86% 30.30 in 10.0 mi Calm Calm - N/A   Clear